Location: Larkspur
(54.4391°N, 113.7691°W)
Time: 23:44:26
(UTC+00:00)

CZ-4C DEB - Pass Details

Date: 23 May 2024
Orbit: 605 x 614 km, 97.8° (Epoch: 21 June)

Event Time Altitude Azimuth Distance (km) Brightness Sun altitude
Exits shadow 06:28:59 10° 213° (SSW) 1,978 ? -13.7°
Maximum altitude 06:32:29 24° 268° (W) 1,289 ? -13.8°
Drops below altitude 10° 06:36:01 10° 323° (NW) 1,991 ? -13.9°
Sets 06:38:35 0° 337° (NNW) 2,901 ? -14.0°
